Wind_Speed
8 6 6 6 7 8 8 9 9 10 11 12 13 14 15 16 16 16 16 16 15 15 14 13 12 10 9 7 6 4 3 2 0 1 3 4 5 7 10 11 11 10 9 9 8 7 6 5 4 3 2 1 1 3 4 7 9 10 10 9 8 7 6 5 4 3 4 5 6
6 5 5 6 6 7 8 9 9 10 11 12 13 14 15 16 16 16 16 15 15 14 13 11 10 8 6 4 3 2 2 2 3 4 5 7 8 9 10 10 9 8 7 7 6 6 5 5 4 3 3 5 7 9 12 14 14 14 13 10 8 6 5 5 5 5 5 7 8
5 4 5 6 6 7 8 9 10 10 11 12 13 14 15 16 16 16 16 15 14 13 12 10 9 7 5 4 3 3 3 4 5 6 7 8 8 9 9 8 8 7 7 6 6 6 6 6 7 7 9 11 13 15 17 18 17 15 12 10 9 7 7 7 6 6 7 8 8
4 4 5 6 7 8 8 9 10 11 12 13 14 15 16 16 16 16 16 15 14 13 12 10 9 7 5 5 5 5 5 6 7 7 8 8 8 7 7 7 8 8 8 9 9 9 10 10 11 11 12 13 14 15 15 13 12 10 9 9 8 8 7 7 6 7 8 9 10
5 5 6 6 7 8 9 10 11 11 12 13 14 15 16 16 16 16 15 15 14 13 12 10 9 8 7 7 7 7 8 8 8 8 8 8 8 8 8 8 9 9 9 10 11 11 12 12 13 13 13 13 12 12 10 9 8 7 7 7 7 7 8 8 8 9 11 12 13
5 6 6 7 8 9 10 10 11 11 12 13 14 15 16 16 16 16 15 14 13 12 11 10 9 9 8 8 9 9 9 9 9 8 6 6 7 8 9 8 8 7 8 9 10 10 11 11 10 10 10 9 8 8 7 6 6 6 7 8 8 9 9 10 11 12 13 14 15
6 7 7 8 8 9 10 11 11 12 13 14 15 16 16 16 16 15 14 13 12 11 10 10 10 10 10 10 10 10 10 10 9 7 7 8 9 9 8 6 5 5 5 5 6 6 6 6 5 5 5 5 5 4 4 5 6 7 8 9 9 10 11 11 12 13 14 15 15
7 7 7 8 9 10 10 11 12 13 14 15 16 16 16 16 15 14 13 12 11 11 10 10 10 10 10 10 10 10 9 9 8 8 8 8 7 5 4 3 2 2 2 2 2 2 2 2 3 3 3 3 3 4 5 6 7 8 9 10 11 12 13 13 13 13 13 13 13
8 8 8 8 9 10 11 11 12 13 14 15 16 16 16 15 14 14 13 12 11 11 11 11 11 11 10 10 9 9 9 9 9 8 6 4 2 1 0 0 0 0 1 1 1 2 2 2 2 3 3 4 5 6 7 7 8 9 10 11 12 12 11 11 11 10 10 10 11
8 8 8 8 9 10 11 12 13 13 14 15 15 16 15 15 14 14 13 12 11 11 12 12 12 11 11 10 10 10 10 9 7 5 3 1 0 0 1 1 1 2 1 1 0 1 2 3 4 4 5 6 6 7 7 7 8 9 9 9 9 9 8 8 7 8 9 10 11
8 8 8 9 9 10 11 12 13 14 14 15 15 15 15 15 14 13 13 12 12 12 12 12 12 12 12 12 11 11 9 7 5 2 1 1 1 0 1 2 2 2 1 2 2 3 4 4 5 5 6 6 6 6 6 6 6 7 7 7 6 6 7 7 8 8 9 11 12
9 9 9 9 10 10 11 12 13 14 14 15 15 15 15 15 14 13 13 13 13 13 13 13 13 13 13 12 12 10 8 6 3 1 1 1 1 1 2 3 2 2 2 3 4 4 4 5 5 5 5 5 5 5 5 5 5 6 6 7 7 7 8 8 9 10 11 12 12
10 10 10 10 10 11 11 12 13 14 15 15 15 15 15 15 14 14 14 14 14 14 14 14 14 14 13 13 11 10 8 5 3 2 3 3 3 3 4 4 4 3 4 4 4 4 4 4 4 4 4 4 5 5 5 5 6 7 7 8 8 9 9 10 10 11 12 12 13
11 11 11 11 11 11 11 12 13 14 15 16 16 16 16 15 15 14 14 15 15 15 15 15 15 14 13 12 11 9 7 5 5 4 4 4 4 4 5 5 5 5 5 5 5 4 4 4 4 4 4 5 5 6 6 7 7 8 8 9 9 10 10 11 11 12 12 13 13
12 12 12 11 11 11 12 12 14 15 16 17 17 16 16 16 15 15 15 16 16 16 16 16 15 14 13 11 10 8 7 6 6 6 6 6 5 6 6 7 7 7 6 6 6 5 5 5 5 5 5 6 6 7 7 8 8 9 9 10 10 11 11 11 12 12 12 13 14
13 12 12 12 11 11 12 13 15 16 17 18 18 17 16 16 16 16 16 16 16 16 16 15 15 13 12 11 9 8 8 8 8 8 7 7 7 7 8 8 8 8 7 7 6 6 6 6 6 6 6 7 7 7 8 8 9 9 10 10 10 11 11 11 12 12 12 13 14
14 13 12 12 11 12 13 14 16 17 18 19 18 18 17 17 17 17 17 17 17 16 16 15 14 13 11 10 9 9 9 10 9 9 9 9 9 9 9 9 9 9 8 7 7 6 6 7 7 7 7 7 7 7 8 8 9 9 10 10 10 11 11 11 12 12 13 14 14
15 13 12 11 11 12 14 16 17 18 19 20 19 19 18 18 18 18 18 18 17 16 15 14 13 11 10 10 10 10 10 11 11 11 11 11 10 10 10 10 9 9 8 7 7 7 7 7 7 7 6 6 7 7 8 8 9 9 9 10 10 11 11 12 12 13 13 14 14
15 13 12 11 11 13 15 17 18 20 20 20 20 20 19 19 18 18 18 18 17 16 14 13 11 10 10 10 11 11 11 12 12 12 12 12 11 11 10 10 9 8 8 7 7 6 6 6 6 6 6 6 7 7 8 8 8 9 9 10 10 11 11 12 13 13 14 14 14
15 13 11 11 12 14 16 18 20 21 21 21 21 20 19 19 19 19 18 17 16 14 13 11 10 9 9 10 11 11 12 12 12 13 12 12 12 11 10 9 8 8 7 7 6 6 5 5 5 5 6 6 7 7 8 8 9 9 10 10 11 12 12 13 13 14 14 15 15
14 12 12 12 14 15 17 19 20 21 22 22 21 20 19 19 19 18 18 16 15 13 11 10 9 8 9 9 10 11 12 12 13 13 12 12 11 10 9 8 7 7 6 6 5 5 4 4 5 6 6 7 8 8 9 9 10 11 11 12 12 13 13 14 14 15 15 15 16
14 13 13 14 15 17 18 19 20 21 22 22 21 19 19 19 19 18 17 16 14 12 11 9 8 8 8 9 10 11 12 12 12 12 11 10 9 8 8 7 6 5 5 4 4 4 5 5 6 7 8 9 10 10 11 11 12 13 14 14 15 15 15 15 15 16 16 16 17
14 14 15 16 17 18 19 20 20 21 21 21 20 19 19 19 19 18 17 16 14 13 11 9 8 8 8 9 10 10 11 11 10 10 9 9 8 7 6 5 5 4 4 4 5 6 6 8 9 10 10 11 12 13 13 14 15 15 16 16 17 17 17 17 17 17 18 18 19
15 15 16 17 18 19 19 20 20 21 21 20 19 18 18 18 18 18 17 16 14 13 11 9 8 8 8 8 8 8 8 7 7 7 7 7 6 6 5 5 5 6 6 7 8 9 9 10 11 12 13 13 14 15 15 16 16 16 17 17 16 17 17 18 18 19 19 20 20
16 17 17 18 19 19 20 20 20 20 19 19 18 17 17 17 17 17 16 15 13 12 10 8 7 7 6 6 5 5 5 5 5 5 5 5 5 6 6 7 8 9 9 10 11 11 12 12 13 13 14 15 15 16 16 16 16 16 16 16 16 17 17 18 18 18 18 18 18
17 18 18 19 20 20 20 20 19 19 18 18 17 16 16 16 16 15 14 12 11 9 8 6 5 4 4 3 2 2 3 3 4 4 5 6 7 8 9 10 11 12 12 13 13 13 13 13 13 14 14 14 15 15 15 15 15 15 15 16 17 17 17 17 18 18 18 18 18
18 19 19 20 20 20 20 19 18 18 17 17 16 15 14 14 13 12 11 9 8 6 5 4 2 1 0 0 1 2 3 5 6 7 8 9 11 11 12 13 13 14 14 14 13 14 13 13 13 13 13 13 13 14 14 14 15 15 16 17 17 17 17 17 18 18 18 18 18
18 19 19 19 19 19 19 18 17 17 16 14 13 11 10 10 9 8 7 5 4 3 2 1 1 2 2 3 4 5 6 8 9 10 11 12 13 13 14 14 14 14 14 13 13 13 13 13 13 12 12 12 12 13 13 14 15 15 16 15 15 15 16 16 17 17 17 18 18
18 18 17 17 17 17 17 16 15 13 12 10 8 7 6 5 5 4 3 2 1 3 3 3 4 6 7 7 8 9 10 11 11 12 13 14 14 14 14 14 14 14 13 13 13 13 13 12 12 11 11 11 12 13 14 14 14 14 14 14 15 15 16 16 16 16 16 16 16
16 15 15 15 15 15 14 13 11 9 7 5 4 3 1 1 1 1 2 3 5 6 7 8 10 11 11 11 12 12 12 12 13 13 14 13 13 13 13 13 13 13 13 13 13 13 12 12 11 11 11 12 13 13 13 13 13 14 14 15 15 15 16 16 16 16 16 16 16
13 12 13 13 13 11 10 9 7 5 3 1 1 3 4 4 3 2 3 5 7 9 11 12 13 14 13 13 13 13 13 13 13 12 12 12 12 12 13 13 13 13 13 13 13 12 12 11 11 12 12 13 13 13 13 13 13 14 14 14 15 15 15 15 16 16 16 16 16
11 11 11 10 9 7 5 4 2 2 3 4 5 5 5 3 2 3 4 6 9 11 12 13 13 13 13 12 12 12 11 11 10 10 10 10 11 12 13 13 13 13 13 12 12 11 11 11 12 13 13 13 14 14 14 13 14 14 14 14 14 15 15 15 15 15 16 16 16
10 10 8 6 3 2 2 3 5 5 5 5 4 4 3 2 3 5 6 8 10 11 11 12 12 11 10 10 10 9 9 9 9 10 10 11 12 13 13 13 13 12 11 11 10 11 11 12 13 13 14 14 14 13 13 13 13 14 14 14 14 15 14 14 15 15 15 16 16
7 5 3 2 4 6 7 7 7 6 5 3 3 2 3 4 5 6 7 8 9 10 11 11 10 9 9 8 8 8 8 9 10 10 11 12 12 12 12 12 11 10 10 10 10 11 12 13 14 14 14 14 14 13 13 13 13 14 14 15 15 15 14 14 15 15 16 16 16
2 2 5 7 9 9 8 7 6 4 2 1 2 3 4 5 6 6 7 8 9 10 10 10 9 8 7 7 7 8 9 10 11 11 12 12 12 12 11 11 10 9 9 10 11 12 13 14 14 14 14 14 14 13 13 14 14 14 14 15 15 15 15 15 16 16 16 16 16
4 7 8 9 8 7 6 5 3 1 1 2 3 3 4 5 5 6 7 7 8 8 8 7 7 6 7 8 8 9 10 11 11 11 11 11 11 10 10 10 10 10 10 11 12 13 14 15 15 15 15 14 14 13 13 13 13 14 14 14 15 15 15 15 15 16 16 16 16
5 7 7 6 5 4 3 2 0 1 2 3 2 2 3 3 4 5 5 6 6 6 6 6 6 7 8 9 10 10 11 11 11 10 10 10 10 9 10 10 10 11 12 13 14 15 15 15 15 15 14 13 13 13 13 13 13 13 14 14 15 15 15 15 15 15 15 15 15
3 4 4 3 2 1 0 1 2 3 3 3 2 1 2 3 3 3 3 4 4 5 5 7 7 8 9 10 10 10 10 10 10 9 9 9 9 9 10 10 11 12 13 14 15 16 16 15 15 14 13 13 13 13 13 13 13 13 14 14 15 15 15 14 14 14 15 15 15
3 3 2 1 1 1 2 2 3 4 3 3 2 1 1 2 2 2 2 3 4 5 6 7 8 9 10 10 10 9 9 9 9 9 8 8 9 9 10 11 13 14 15 16 16 16 15 15 14 13 12 12 12 12 12 12 13 13 14 14 15 15 15 14 14 14 14 15 16
3 2 1 1 2 2 3 3 4 4 3 3 2 1 1 1 1 1 2 4 5 6 7 8 9 10 10 10 9 9 8 8 8 8 8 8 9 10 11 12 14 15 16 16 16 15 14 13 12 12 12 12 12 11 12 12 13 14 14 15 15 15 15 15 14 14 15 15 16
2 1 1 2 2 3 4 4 4 4 3 3 2 2 1 1 1 2 3 5 6 7 8 9 9 9 9 9 9 8 8 8 8 8 9 9 10 11 12 13 14 16 16 16 15 14 13 12 11 11 11 12 12 12 12 12 13 14 15 15 15 15 15 15 15 15 15 16 16
Wind_Direction
294 296 303 311 316 317 315 314 313 313 313 314 316 318 319 319 317 314 310 307 305 303 303 304 305 308 313 319 323 324 323 322 261 172 166 166 169 170 169 166 166 168 172 175 177 176 173 169 158 148 141 148 318 308 298 294 294 296 296 292 285 277 269 255 238 230 238 251 257
292 296 303 309 310 309 308 307 308 309 310 313 315 318 318 318 315 310 306 302 299 298 297 296 297 299 301 303 301 289 254 200 179 172 168 166 166 167 168 168 173 180 185 187 189 188 189 192 197 215 250 272 280 283 284 284 284 284 280 272 262 249 233 220 218 225 237 247 251
290 294 299 301 301 300 299 300 302 305 309 312 316 317 317 315 312 307 302 297 294 292 290 286 284 281 276 267 252 228 203 188 180 176 173 168 168 172 178 186 196 206 214 220 223 224 226 230 237 246 255 263 270 275 278 279 277 273 265 255 246 234 221 217 222 231 240 247 249
287 289 292 292 291 290 291 294 299 303 308 312 315 316 315 312 308 303 298 293 290 286 282 276 270 262 252 240 225 208 194 186 182 181 180 178 181 189 200 211 220 227 232 236 239 243 249 255 259 261 263 265 268 271 272 271 270 264 257 250 243 233 226 229 234 241 245 249 251
284 285 285 285 284 284 287 292 297 302 307 311 313 313 312 309 304 300 295 290 285 281 275 268 259 248 237 225 210 198 189 184 184 185 187 191 200 211 218 223 228 233 240 246 252 258 264 270 272 271 270 269 269 271 274 275 271 264 256 251 242 236 236 241 246 248 250 251 252
281 281 281 281 280 283 287 292 296 300 305 309 311 311 308 305 301 296 291 285 281 275 268 257 246 235 224 213 202 194 189 187 187 191 203 223 231 233 233 233 238 249 259 267 271 273 275 275 273 271 270 272 276 283 287 284 273 257 247 244 242 243 246 250 254 255 257 258 259
280 280 280 280 281 284 287 291 295 300 305 309 310 308 306 302 298 293 287 281 276 268 257 246 235 225 215 207 201 197 195 196 202 222 256 275 264 254 248 250 261 275 283 285 285 285 283 281 280 280 284 291 293 289 278 266 255 249 247 250 255 259 261 263 267 269 270 270 269
281 282 283 284 285 287 289 292 297 302 306 307 307 306 302 298 293 288 283 277 269 259 250 241 232 225 217 212 209 210 214 222 237 252 263 267 260 253 253 267 283 296 303 311 321 327 330 334 334 324 311 298 284 273 265 260 258 259 262 267 273 277 279 279 280 280 279 276 273
282 285 288 289 290 291 293 296 300 302 304 305 305 302 298 293 288 283 277 270 262 254 247 241 235 230 227 228 230 235 240 247 254 256 253 247 241 243 275 331 45 66 62 45 31 17 1 349 332 312 293 282 278 276 276 275 273 273 276 279 282 285 288 288 285 282 279 275 273
283 287 290 291 292 294 296 298 300 301 302 302 301 299 295 289 283 277 272 266 258 251 245 242 240 239 240 244 249 251 253 254 252 245 233 214 53 49 96 122 123 126 129 124 355 307 299 293 287 282 280 280 280 281 283 282 279 277 278 279 281 283 283 282 279 275 273 272 273
286 289 290 292 293 295 296 297 298 299 300 300 299 296 292 286 280 274 267 261 254 249 246 246 246 247 249 251 253 254 253 250 240 226 210 3 359 352 165 157 154 164 197 236 260 269 273 274 274 277 279 280 279 278 277 275 272 270 270 271 273 273 273 272 271 271 271 272 273
287 289 290 291 293 293 293 294 296 298 299 299 297 294 289 283 277 271 264 257 252 249 248 249 250 251 251 251 251 250 248 241 230 231 302 313 291 236 203 192 196 219 246 258 264 265 264 264 268 271 274 274 271 268 267 267 266 267 269 271 272 272 272 273 273 273 273 274 275
286 288 289 290 290 290 291 294 297 299 299 298 296 292 287 281 275 268 261 256 253 251 250 249 250 250 249 248 247 246 242 237 241 268 290 285 262 236 220 216 224 238 251 256 259 261 263 264 267 267 267 268 270 271 273 276 277 279 280 280 280 279 280 280 280 280 280 280 280
284 285 287 287 288 288 291 295 297 299 298 296 293 289 284 278 272 266 261 257 255 253 250 249 248 247 246 246 245 243 242 248 264 278 282 274 256 239 231 232 237 243 249 255 260 265 268 268 270 271 274 277 282 286 288 289 289 289 289 288 287 287 287 287 287 286 286 285 285
281 283 284 285 286 287 291 295 298 298 297 294 291 287 281 275 269 265 262 258 255 252 249 247 246 246 246 245 244 245 252 265 276 280 276 265 253 243 239 240 244 248 254 261 266 271 272 272 274 278 283 287 291 293 295 296 296 294 293 292 291 291 291 291 290 289 289 288 288
279 281 282 282 284 288 293 297 298 298 296 293 290 285 279 272 268 264 262 258 254 250 247 247 247 246 245 244 247 254 264 272 276 274 268 259 250 246 244 245 250 255 259 264 268 269 270 270 274 278 283 288 293 296 298 298 297 295 294 292 291 291 290 290 290 290 289 288 287
278 279 280 282 286 291 296 298 298 297 296 293 289 284 277 271 266 263 260 258 254 250 247 247 247 246 245 247 254 262 268 271 270 266 260 254 249 246 247 249 253 257 261 263 264 264 265 268 272 279 285 291 295 298 298 297 295 293 292 290 289 288 288 288 288 288 287 286 284
277 278 280 284 289 294 297 299 299 297 296 293 289 283 276 270 265 262 259 258 256 252 248 245 244 245 248 253 259 263 265 265 262 259 255 251 248 248 249 252 255 258 260 260 260 261 264 269 275 282 290 296 299 299 297 295 293 291 289 288 287 287 287 287 287 286 285 283 281
277 278 281 286 292 296 298 299 299 298 297 294 289 283 276 270 265 261 258 256 254 251 246 241 241 245 251 257 261 262 262 260 258 256 253 251 251 251 253 255 256 257 257 257 259 262 268 274 282 290 296 301 302 301 299 296 293 291 290 288 288 288 288 288 288 287 285 283 281
277 279 283 288 293 297 298 299 299 299 298 295 290 282 275 268 264 260 256 252 249 244 239 236 240 246 252 257 259 260 259 257 256 255 255 255 257 258 257 256 256 256 257 260 265 270 278 288 298 305 308 309 308 306 303 300 298 296 294 293 292 292 292 291 290 289 287 286 284
279 281 285 290 294 297 299 300 300 300 299 295 290 282 273 266 260 255 251 247 242 235 231 233 240 248 253 256 256 256 256 256 256 258 260 262 263 262 259 256 255 256 260 266 274 282 294 309 318 321 321 320 318 314 311 308 306 304 302 300 299 298 297 295 293 292 290 289 288
281 283 286 291 296 299 301 301 302 301 299 296 290 281 271 262 255 249 245 239 233 228 229 235 244 252 257 258 258 258 258 259 261 264 265 266 263 260 256 254 254 257 264 275 289 303 314 322 326 328 327 326 323 320 317 314 312 309 307 305 303 302 300 298 296 295 294 292 292
282 284 288 293 297 300 302 302 302 302 300 297 289 279 266 256 249 243 237 231 227 227 232 240 251 260 266 267 266 265 265 267 267 267 265 264 260 257 257 258 263 271 281 293 305 314 319 322 323 324 324 323 321 318 316 313 311 309 306 305 303 302 301 300 299 298 298 297 296
282 285 289 293 296 299 300 301 301 300 298 294 285 274 261 251 243 236 230 227 227 231 238 248 261 272 278 279 276 272 270 269 266 263 262 262 262 266 274 282 289 295 301 305 310 312 314 316 317 317 315 314 312 310 308 306 305 303 302 301 301 301 302 302 302 302 302 301 300
281 283 286 290 293 297 299 299 298 296 293 288 280 270 259 248 239 232 228 229 233 239 248 261 272 281 284 283 280 275 271 267 266 269 275 282 289 297 304 308 309 308 308 309 309 309 309 309 309 308 307 306 304 303 301 299 298 297 298 300 302 303 303 303 303 303 302 301 299
278 280 284 288 293 297 299 299 297 293 288 282 276 267 257 247 238 233 233 236 243 251 261 272 276 276 275 272 274 279 283 287 293 300 306 311 313 314 314 313 310 308 307 306 305 304 303 302 302 301 301 300 298 297 296 295 296 297 300 302 304 305 304 303 302 301 299 298 297
277 281 286 292 297 301 303 302 298 291 284 277 270 262 253 245 240 239 243 251 257 263 266 264 253 236 207 96 334 324 317 314 315 315 315 315 314 314 312 310 309 307 306 305 303 302 300 300 299 299 297 295 293 293 294 296 299 302 304 305 305 304 302 300 299 298 297 296 295
283 288 294 300 305 309 309 306 299 289 279 272 265 258 252 250 251 257 265 269 264 250 221 164 107 60 26 4 344 331 324 319 317 316 316 315 315 313 312 310 309 308 307 305 302 301 299 299 298 296 293 291 292 295 298 302 304 305 305 304 302 300 298 297 297 296 295 295 295
291 297 303 309 313 314 312 306 296 286 277 271 267 265 266 271 278 285 290 291 68 81 70 46 22 7 358 348 339 331 326 322 319 318 317 316 314 312 310 308 306 305 303 301 299 298 298 297 296 294 293 295 298 302 304 304 304 303 301 299 298 297 296 295 294 294 293 294 294
299 306 312 316 317 314 309 302 294 288 285 284 285 289 300 26 60 19 10 35 35 25 10 0 355 351 347 342 336 331 327 323 320 318 316 313 311 308 305 303 301 299 299 298 297 297 297 296 296 297 299 302 305 305 304 302 301 299 297 296 295 295 294 294 293 293 293 293 294
306 312 316 317 315 311 306 302 300 301 309 346 98 108 106 98 82 41 21 17 2 351 346 344 343 342 340 336 332 328 324 320 317 314 310 307 304 301 299 298 297 297 298 298 297 297 297 297 298 301 303 305 306 304 300 298 296 295 294 293 293 294 294 294 294 293 293 293 293
310 314 315 315 313 311 312 319 342 52 93 108 115 116 110 87 37 5 353 342 337 336 337 337 338 337 335 332 329 325 320 315 311 307 303 301 298 296 296 296 297 298 298 297 297 297 298 299 302 304 306 307 305 301 297 294 293 292 292 292 292 293 294 294 294 293 292 291 291
312 315 316 318 328 3 57 84 93 100 107 114 115 110 91 49 10 349 338 334 333 335 337 337 336 333 330 326 321 316 310 306 303 300 298 296 294 294 295 296 298 299 298 297 298 299 301 303 305 306 307 305 301 297 294 293 293 293 293 294 294 295 295 294 293 291 290 290 288
317 321 337 65 92 97 99 101 102 105 109 110 96 70 44 20 2 350 343 341 342 341 339 336 331 327 321 315 308 303 300 299 298 297 296 296 296 296 297 298 299 299 299 300 301 303 305 307 307 307 306 303 298 294 293 294 294 295 296 296 297 297 296 294 292 290 289 288 287
340 76 105 106 105 103 102 103 105 108 105 69 31 23 18 14 7 359 353 347 343 338 332 327 322 317 312 307 303 300 299 299 299 299 299 299 299 300 300 300 301 301 302 304 306 307 309 309 309 307 305 301 297 295 295 296 297 297 298 299 299 298 297 295 293 291 289 288 287
99 108 109 108 105 104 105 108 111 108 328 328 345 2 13 18 14 4 352 342 334 326 319 315 312 310 307 306 306 305 304 304 304 304 304 304 304 303 303 302 303 305 307 309 311 312 312 311 309 307 305 302 299 298 298 299 299 300 300 300 300 299 298 296 294 292 290 289 288
107 109 107 105 105 109 113 110 44 293 295 305 325 353 15 20 12 357 341 328 319 312 310 311 313 313 313 313 312 312 310 310 309 309 309 308 307 306 306 306 308 310 313 315 316 316 315 313 310 308 306 304 301 300 300 301 301 302 302 302 301 301 300 299 296 294 292 290 289
139 126 115 109 112 115 80 316 292 279 274 277 290 337 3 4 355 338 320 311 307 309 314 319 319 319 318 319 318 317 315 313 313 313 312 311 310 310 310 311 313 316 318 320 320 319 317 313 310 309 308 305 302 302 302 303 303 303 304 304 304 303 303 301 300 297 294 292 290
160 154 154 176 279 306 303 289 272 262 256 253 256 286 327 338 334 316 306 310 316 321 323 324 323 322 321 321 320 319 317 315 315 315 314 313 313 314 316 317 319 320 322 323 323 321 318 314 312 312 312 308 304 303 303 304 305 305 306 307 307 306 305 303 301 299 296 294 292
178 193 227 283 305 299 279 259 251 249 248 245 244 246 254 279 305 322 324 325 328 329 329 327 325 323 321 321 320 320 319 317 316 316 317 317 318 320 322 323 323 324 325 326 325 322 319 316 315 317 317 312 307 305 305 306 307 308 309 309 309 308 306 305 302 300 297 296 294
215 242 279 305 298 276 255 243 240 241 243 238 229 224 232 310 343 343 338 335 332 331 329 327 324 322 321 320 320 321 320 317 316 317 319 321 323 325 326 326 326 326 327 327 327 324 321 319 320 322 320 316 312 310 309 309 309 310 310 310 309 308 306 305 303 300 298 296 295
Height
813 813 813 813 812 812 812 811 811 810 810 809 808 807 806 805 804 804 803 803 802 802 801 800 800 799 798 797 796 796 795 794 794 793 793 793 793 793 793 794 794 794 795 795 795 795 795 796 796 797 798 798 799 799 800 800 801 802 803 803 804 804 804 804 805 805 805 805 805
813 812 812 812 811 811 810 810 810 809 808 808 807 806 805 804 803 803 802 802 801 801 800 799 798 798 797 797 796 795 794 794 793 793 793 793 793 793 793 794 794 795 795 795 795 795 795 796 796 797 798 798 799 799 800 800 801 801 802 802 803 803 803 803 803 803 803 803 804
811 811 811 810 810 809 809 809 808 808 807 806 805 804 803 803 802 802 801 801 800 800 799 798 798 797 796 796 795 795 794 794 793 793 793 793 793 793 793 793 794 794 795 795 796 796 796 796 796 796 797 797 798 798 799 799 799 800 800 801 801 801 801 802 802 802 802 802 802
810 810 809 809 808 808 808 807 807 806 806 805 804 803 803 802 801 801 800 800 799 798 798 798 797 796 796 795 795 794 794 793 793 793 792 792 793 793 793 793 793 793 794 794 795 795 795 795 795 796 796 797 797 798 798 798 798 798 799 799 800 800 800 800 800 800 800 800 800
809 808 808 808 807 807 807 806 806 805 804 803 803 802 801 801 800 799 799 798 798 798 797 797 796 795 795 794 794 793 793 793 793 792 792 792 792 792 792 792 792 793 793 793 793 794 794 795 795 795 796 796 797 797 797 797 798 798 798 798 798 798 798 798 798 798 799 799 799
808 807 807 806 806 806 805 805 804 804 803 802 802 801 800 800 799 798 798 798 797 796 796 796 795 794 794 793 793 793 793 793 792 792 792 792 792 792 792 792 792 792 792 793 793 793 794 794 794 794 795 795 796 796 797 797 797 797 798 798 798 798 798 798 798 798 798 798 798
806 806 805 805 805 804 804 804 803 803 802 801 801 800 799 798 798 798 797 796 796 795 795 795 794 794 793 793 792 792 792 792 792 792 792 792 791 791 791 791 791 792 792 792 792 793 793 793 793 794 794 795 795 795 796 796 796 797 797 797 798 798 798 798 798 798 798 798 798
805 804 804 804 804 803 803 803 802 801 801 800 799 799 798 798 797 796 796 795 795 795 794 794 794 793 793 792 792 792 791 791 791 791 791 790 790 790 790 790 790 791 791 791 792 792 793 793 793 793 794 794 794 794 795 795 796 796 796 797 797 797 797 797 797 797 797 797 797
803 803 803 803 802 802 802 801 800 800 799 798 798 797 797 796 796 795 795 794 794 794 793 793 793 793 792 792 791 791 791 790 790 790 790 789 789 789 789 789 789 790 790 791 791 792 792 792 793 793 793 793 794 794 794 794 795 795 795 795 795 795 795 795 795 796 796 796 796
802 802 801 801 801 800 800 799 799 798 798 797 796 796 795 795 795 794 794 793 793 793 793 792 792 792 792 791 791 790 790 789 789 789 789 788 788 788 788 788 788 789 789 790 790 791 791 792 792 792 793 793 793 793 793 793 793 793 793 793 793 793 793 793 794 794 794 794 794
801 800 800 799 799 798 798 798 797 797 796 796 795 794 794 794 793 793 793 793 792 792 792 791 791 791 791 790 790 789 789 788 788 788 788 788 787 787 787 787 788 788 788 788 789 789 790 790 791 791 791 791 791 791 791 791 792 792 792 792 792 792 792 792 792 792 792 792 792
799 799 798 798 797 797 796 796 796 796 795 795 794 794 793 793 792 792 792 792 791 791 791 790 790 790 790 790 789 789 788 788 788 787 787 787 787 786 786 786 787 787 787 787 788 788 788 789 789 789 789 789 789 790 790 790 790 790 790 790 790 790 790 790 790 790 790 790 790
798 797 797 796 796 795 795 795 795 795 794 794 793 793 793 792 792 791 791 791 790 790 790 789 789 789 789 789 789 788 788 788 787 787 787 786 786 786 785 785 785 786 786 786 786 786 787 787 787 788 788 788 788 788 788 788 788 788 788 788 788 788 788 788 788 788 788 788 788
796 795 795 794 794 794 794 794 794 793 793 793 793 792 792 791 791 790 790 790 789 789 789 788 788 788 788 788 788 788 788 788 787 786 786 785 785 785 785 784 784 784 784 784 784 784 785 785 785 786 786 786 786 786 787 787 787 787 787 787 787 787 787 787 787 787 787 787 787
794 794 793 793 793 793 793 793 793 792 792 792 791 791 790 790 790 789 789 789 788 788 788 788 788 788 788 788 788 788 788 787 787 786 785 785 784 784 784 783 783 783 783 783 783 783 783 783 783 784 784 784 784 785 785 785 785 785 786 786 786 786 786 786 786 786 786 785 785
793 792 792 792 792 792 792 792 791 791 790 790 790 789 789 789 788 788 788 788 787 787 787 787 787 787 787 787 787 787 787 787 786 786 785 784 783 783 783 783 783 782 782 782 782 781 781 782 782 782 782 783 783 783 783 783 784 784 784 784 784 784 784 784 784 784 784 784 784
791 791 791 791 791 791 791 790 790 789 789 788 788 788 788 787 787 787 787 786 786 786 786 786 786 786 786 786 786 786 786 786 786 785 784 783 783 782 782 782 781 781 781 781 780 780 780 780 780 780 780 781 781 781 782 782 782 783 783 783 783 783 783 783 783 783 783 783 783
790 790 790 790 790 790 789 789 788 788 788 787 787 786 786 786 785 785 785 785 785 785 785 785 785 785 785 785 785 785 785 785 785 784 783 783 782 781 781 780 780 780 780 779 779 779 779 779 779 779 779 779 780 780 780 780 781 781 781 781 782 782 782 782 782 782 781 781 781
790 789 789 788 788 788 788 788 787 787 786 785 785 784 784 784 784 783 783 783 783 783 783 784 784 784 784 784 784 784 784 784 784 783 783 782 781 781 780 779 779 779 779 778 778 778 778 778 778 778 778 778 778 778 779 779 779 779 780 780 780 780 780 780 780 780 779 779 779
789 789 788 787 787 787 786 786 785 785 784 784 783 783 782 782 782 782 782 782 782 782 783 783 783 783 783 783 783 783 783 783 783 783 782 781 781 780 779 779 778 778 778 778 778 777 777 777 777 777 777 777 777 778 778 778 778 778 778 778 778 778 778 778 778 778 778 778 777
789 788 787 786 786 785 784 784 784 783 783 782 782 781 781 781 781 781 781 781 781 781 781 781 781 781 781 781 782 782 782 782 782 782 781 781 780 779 779 778 778 778 777 777 777 777 777 777 776 776 776 776 776 776 777 777 777 777 777 777 776 776 776 776 776 776 776 775 775
788 788 787 785 784 783 783 783 782 782 781 781 780 780 779 779 779 779 779 779 780 780 780 780 780 780 780 780 780 780 781 781 781 781 780 780 780 779 778 778 778 777 777 776 776 776 776 776 775 775 775 775 775 775 775 775 775 775 775 775 774 774 774 774 774 774 773 773 773
787 787 786 784 783 782 782 781 781 780 780 779 779 778 778 778 778 778 778 778 779 779 779 778 778 778 778 779 779 779 780 780 780 780 780 780 779 778 778 778 777 777 776 776 775 775 775 775 774 774 774 774 774 774 773 773 773 773 773 773 773 773 772 772 772 772 771 771 771
786 785 784 783 782 781 780 780 779 779 779 778 778 778 777 777 777 777 777 777 778 778 778 778 777 777 778 778 778 778 779 779 779 779 779 779 778 778 778 777 777 776 776 775 775 774 774 774 773 773 773 773 773 772 772 772 772 772 772 771 771 771 770 770 769 769 769 769 768
785 784 783 782 781 779 779 778 778 778 777 777 777 776 776 776 776 776 776 777 777 777 776 776 776 776 776 777 777 778 778 778 779 779 779 778 778 778 777 777 777 776 775 775 774 774 773 773 773 772 772 772 771 771 771 771 770 770 770 769 769 769 768 768 768 767 767 767 767
783 782 781 780 779 778 777 777 776 776 776 776 775 775 776 776 776 776 776 776 776 776 776 776 776 776 776 776 776 777 778 778 778 778 778 778 778 777 777 777 776 775 775 774 774 773 773 772 772 771 771 771 770 770 769 769 769 768 768 768 767 767 767 766 766 766 766 765 765
781 780 780 779 778 777 776 775 775 775 774 774 774 775 775 775 776 776 776 776 775 775 775 775 775 775 775 775 776 777 777 778 778 778 778 777 777 777 776 776 775 774 774 773 773 772 772 771 771 770 770 769 769 769 768 768 768 767 767 766 766 765 765 765 764 764 763 763 763
780 779 778 778 777 776 775 774 774 774 774 774 774 774 775 775 776 776 776 776 775 775 775 775 775 775 775 775 776 777 777 777 777 777 777 776 776 775 775 774 774 773 773 772 772 771 771 770 770 769 769 768 768 768 767 767 766 766 765 765 764 764 764 763 763 762 762 761 761
779 778 778 777 776 775 774 774 773 773 773 774 774 775 775 776 776 777 777 777 776 776 775 775 775 775 775 776 776 776 776 776 776 776 776 775 775 774 774 773 773 773 772 772 771 770 770 769 769 768 768 768 767 766 766 765 765 765 764 764 763 763 762 762 761 760 760 759 758
778 777 777 776 775 774 774 773 773 773 773 774 774 774 775 776 777 778 778 778 777 777 776 776 776 775 775 776 776 776 776 776 775 775 775 774 774 773 773 773 772 772 771 771 770 769 769 768 768 768 767 767 766 766 765 764 764 763 763 762 762 761 761 760 759 759 758 757 757
777 776 775 775 774 773 773 773 773 774 774 774 774 774 775 775 776 777 778 778 778 778 777 777 776 776 776 775 775 775 775 775 774 774 774 773 773 772 772 771 771 771 770 770 769 769 768 768 767 767 766 766 765 764 764 763 763 762 762 761 760 759 759 758 757 757 756 756 755
775 775 774 773 773 773 773 773 773 774 774 774 774 774 774 775 776 777 778 778 778 778 778 777 777 776 776 775 775 774 774 774 773 773 773 773 772 771 771 771 770 770 769 769 768 768 767 767 766 766 765 764 764 763 762 762 761 761 760 759 758 757 757 756 756 755 754 754 753
773 773 773 773 772 773 773 773 774 774 775 775 774 774 774 774 775 776 777 778 778 777 777 777 776 776 775 774 774 774 773 773 773 773 772 772 771 771 770 770 769 769 768 768 768 767 766 766 765 764 764 763 762 762 761 760 760 759 758 757 757 756 755 755 754 753 752 752 752
772 772 772 772 772 773 773 773 774 775 775 775 775 774 773 773 774 775 776 776 777 776 776 776 775 775 774 774 773 773 773 772 772 772 771 771 770 770 769 769 768 768 768 767 767 766 765 765 764 763 762 762 761 761 760 759 758 757 757 756 755 754 753 753 752 752 751 750 750
771 771 772 772 772 773 773 773 774 775 776 776 775 773 773 772 773 773 774 775 775 775 775 775 774 773 773 773 773 772 772 771 771 771 770 770 769 769 769 768 768 768 767 766 766 765 764 764 763 762 761 761 760 759 758 757 757 756 755 754 753 752 752 751 751 750 749 749 748
771 771 771 772 772 773 773 773 774 775 775 775 774 773 772 771 771 772 773 774 774 774 774 773 773 773 772 772 772 772 771 771 770 770 770 769 769 768 768 768 767 767 766 766 765 764 763 762 762 761 760 759 759 758 757 756 755 754 753 752 752 751 750 749 749 748 747 747 746
771 771 771 772 772 773 773 773 774 774 775 774 773 772 771 770 770 771 772 772 773 773 773 772 772 772 772 771 771 771 770 770 770 769 769 768 768 768 767 767 767 766 765 765 764 763 762 761 760 759 759 758 757 757 756 754 753 752 752 751 750 749 748 748 747 746 746 745 744
771 771 771 772 772 772 773 773 773 774 774 773 773 772 771 770 769 769 770 771 771 771 771 771 771 771 771 771 771 770 770 769 769 769 768 768 767 767 767 766 766 765 764 763 763 762 761 760 759 758 757 757 756 755 754 753 752 751 750 749 748 747 747 746 745 745 744 743 742
770 770 771 771 771 772 772 773 773 773 773 773 772 771 770 769 768 768 769 770 770 771 771 771 771 770 770 770 770 770 769 769 768 768 768 767 767 766 766 765 765 764 763 762 762 761 759 758 758 757 756 756 755 754 753 752 751 750 749 748 747 746 745 745 744 743 742 742 741
769 770 770 771 771 771 772 772 773 773 772 772 771 770 769 768 768 768 768 769 770 770 770 770 770 770 770 769 769 769 769 768 768 768 767 767 766 766 765 764 764 763 762 761 760 759 758 757 757 756 755 755 754 753 752 751 750 748 747 747 746 745 744 743 742 742 741 740 739
769 770 770 771 771 771 772 772 772 772 772 771 771 770 769 768 768 768 768 769 769 769 769 769 769 769 769 769 769 768 768 768 767 767 766 766 765 765 764 763 763 762 761 760 759 758 757 756 755 755 754 754 753 752 751 750 748 747 747 746 745 744 743 742 741 740 739 738 737